Monterey, CA

2:06 PM PST on December 15, 2017 (GMT -0800)
Monterey Peninsula

Weather History for KMRY - February, 2014

Change the Weather History Date:

Thursday, February 20, 2014

  Actual Average Record
Temperature  
Mean Temperature 57 °F 53 °F  
Max Temperature 71 °F 61 °F 71 °F (2014)
Min Temperature 43 °F 45 °F 34 °F (2006)
Degree Days  
Heating Degree Days 8    
Month to date heating degree days 233  
Since 1 July heating degree days 1736  
Cooling Degree Days 0    
Month to date cooling degree days 0  
Year to date cooling degree days 2  
Growing Degree Days 6 (Base 50)    
Moisture  
Dew Point 41 °F    
Average Humidity 56    
Maximum Humidity 86    
Minimum Humidity 25    
Precipitation  
Precipitation 0.00 in - 2.41 in (2017)
Month to date precipitation 1.59  
Year to date precipitation 1.66  
Since 1 July precipitation 2.94  
Sea Level Pressure  
Sea Level Pressure 30.18 in    
Wind  
Wind Speed 5 mph (ENE)    
Max Wind Speed 12 mph    
Max Gust Speed 16 mph    
Visibility 10 miles    
Events      
T = Trace of Precipitation, MM = Missing Value Source: NWS Daily Summary

Daily Weather History Graph

Daily Weather History Graph

Search for Another Location

Airport or City:

Trip Planner

Search our weather history database for the weather conditions in past years. The results will help you decide how hot, cold, wet, or windy it might be!

Date:

Astronomy

Feb. 20, 2014 Rise Set
Actual Time 6:49 AM PST 5:53 PM PST
Civil Twilight 6:23 AM PST 6:19 PM PST
Nautical Twilight 5:53 AM PST 6:49 PM PST
Astronomical Twilight 5:23 AM PST 7:19 PM PST
Moon 11:42 PM PST (2/20) 9:45 AM PST (2/20)
Length of Visible Light 11h 56m
Length of Day
11h 03m
Waning Gibbous, 70% of the Moon is Illuminated
Feb 20
Waning Gibbous
Feb 22
Last Quarter
Mar 1
New
Mar 8
First Quarter
Mar 16
Full

Hourly Weather History & Observations

Time (PST) Temp. Windchill Dew Point Humidity Pressure Visibility Wind Dir Wind Speed Gust Speed Precip Events Conditions
12:54 AM 46.0 °F 43.1 °F 41.0 °F 83% 30.22 in 10.0 mi East 5.8 mph - N/A   Clear
1:54 AM 46.0 °F 41.9 °F 41.0 °F 83% 30.20 in 10.0 mi East 8.1 mph - N/A   Clear
2:54 AM 46.0 °F 43.1 °F 39.9 °F 79% 30.20 in 10.0 mi East 5.8 mph - N/A   Clear
3:54 AM 50.0 °F - 41.0 °F 71% 30.19 in 10.0 mi ENE 4.6 mph - N/A   Clear
4:54 AM 45.0 °F - 39.0 °F 80% 30.20 in 10.0 mi Calm Calm - N/A   Clear
5:54 AM 44.1 °F 42.5 °F 39.0 °F 82% 30.19 in 10.0 mi East 3.5 mph - N/A   Clear
6:54 AM 44.1 °F - 37.9 °F 79% 30.20 in 10.0 mi Calm Calm - N/A   Clear
7:54 AM 50.0 °F - 39.9 °F 68% 30.21 in 10.0 mi East 6.9 mph - N/A   Clear
8:54 AM 55.9 °F - 41.0 °F 57% 30.22 in 10.0 mi NE 5.8 mph - N/A   Clear
9:54 AM 57.9 °F - 41.0 °F 53% 30.23 in 10.0 mi NE 5.8 mph - N/A   Clear
10:54 AM 66.0 °F - 37.0 °F 34% 30.22 in 10.0 mi NNE 10.4 mph - N/A   Clear
11:54 AM 69.1 °F - 32.0 °F 25% 30.19 in 10.0 mi North 8.1 mph - N/A   Clear
12:54 PM 66.9 °F - 39.0 °F 36% 30.17 in 10.0 mi NW 8.1 mph - N/A   Clear
1:54 PM 61.0 °F - 48.0 °F 62% 30.15 in 10.0 mi WNW 8.1 mph - N/A   Clear
2:54 PM 60.1 °F - 48.0 °F 64% 30.16 in 10.0 mi Variable 6.9 mph - N/A   Clear
3:54 PM 59.0 °F - 48.0 °F 67% 30.15 in 10.0 mi Calm Calm - N/A   Clear
4:54 PM 57.9 °F - 46.9 °F 67% 30.15 in 10.0 mi WNW 3.5 mph - N/A   Clear
5:54 PM 57.9 °F - 46.9 °F 67% 30.15 in 10.0 mi Calm Calm - N/A   Clear
6:54 PM 57.0 °F - 46.9 °F 69% 30.15 in 10.0 mi Calm Calm - N/A   Clear
7:54 PM 57.0 °F - 45.0 °F 64% 30.15 in 10.0 mi East 10.4 mph - N/A   Clear
8:54 PM 57.0 °F - 39.9 °F 53% 30.15 in 10.0 mi East 10.4 mph - N/A   Clear
9:54 PM 54.0 °F - 39.0 °F 57% 30.16 in 10.0 mi Calm Calm - N/A   Clear
10:54 PM 50.0 °F - 37.0 °F 61% 30.15 in 10.0 mi Calm Calm - N/A   Clear
11:54 PM 48.0 °F - 37.0 °F 66% 30.14 in 10.0 mi East 3.5 mph - N/A   Clear